Location: Casilda
(33.0440°S, 61.1680°W)
Time: 20:58:45
(UTC-03:00)

ISS - Pass Details

Date: 21 November 2023
Orbit: 415 x 417 km, 51.6° (Epoch: 04 December)

Event Time Altitude Azimuth Distance (km) Brightness Sun altitude
Exits shadow 04:07:40 16° 34° (NNE) 1,196 -1.5 -19.2°
Maximum altitude 04:08:31 17° 53° (NE) 1,141 -1.4 -19.1°
Drops below altitude 10° 04:10:49 10° 96° (E) 1,507 -0.2 -18.7°
Sets 04:13:25 0° 116° (ESE) 2,379 1.6 -18.3°
